星链-1880 (STARLINK-1880 )

导读 | 星芒AI

STARLINK-1880 是 SpaceX Starlink 项目中的第 1880 颗卫星,属于其低轨卫星互联网星座的一部分。该卫星于 2023 年发射,运行在约 550 公里的近地轨道上,旨在为全球用户提供高速、低延迟的互联网服务。Starlink 卫星采用先进推进系统和激光通信技术,以提高网络效率并减少地面基站依赖。STARLINK-1880 的部署进一步增强了 Starlink 网络的覆盖能力与稳定性,支持偏远地区和应急通信需求。

基本信息
目录编号:
47165
目录名称:
STARLINK-1880
国际标识:
2020-088AV
轨道中心:
EARTH
卫星名称:
星链-1880
卫星全名:
星链-1880 (STARLINK-1880 )
卫星状态:
已陨落 最后检测时间 2025-02-06
发射日期:
2020-11-25 UTC
国别 :
美国 (US)
星等 :
--
轨道信息
数据来源 国际轨道数据
星历时间: 2025-02-06T07:54:25+0800
轨道信息已过期313天
半长轴: 6535.139km
偏心率: 0.000764
轨道倾角: 53.024°
近地点辐角 295.847°
升交点赤经 247.398°
平近点角 175.493°
近地点: 152.011km
远地点: 161.997km
周期: 87.628分钟
每日圈数: 16.433139
详细信息
固有亮度:
5
最大亮度:
2.5
卫星平台:
Starlink V1.0
覆盖范围:
全球
运营商:
太空探索技术公司
运营商所在国:
美国
制造商(研发单位):
太空探索技术公司
制造商所在国:
美国
使用方式:
暂无
卫星简介
星链(Starlink)计划是由太空探索技术公司(SpaceX)提出的一个巨型低轨卫星互联网星座项目,计划在2019年至2024年间在太空搭建由约1.2万颗卫星组成的“星链”网络,其中1584颗将部署在地球上空550千米处的近地轨道,并从2020年开始工作。该卫星仍在工作。